CST,Max TemperatureF,Mean TemperatureF,Min TemperatureF,Max Dew PointF,MeanDew PointF,Min DewpointF,Max Humidity, Mean Humidity, Min Humidity, Max Sea Level PressureIn, Mean Sea Level PressureIn, Min Sea Level PressureIn, Max VisibilityMiles, Mean VisibilityMiles, Min VisibilityMiles, Max Wind SpeedMPH, Mean Wind SpeedMPH, Max Gust SpeedMPH,PrecipitationIn, CloudCover, Events, WindDirDegrees
2013-1-1,21,15,8,16,9,2,85,74,60,30.31,30.25,30.17,10,9,3,15,10,,0.00,2,,334
2013-1-2,23,14,5,14,8,2,88,76,60,30.32,30.27,30.22,10,10,7,18,9,,0.00,0,,219
2013-1-3,30,24,15,25,18,10,93,81,69,30.40,30.29,30.16,10,9,6,22,11,,0.00,5,,258
2013-1-4,31,20,10,22,15,6,85,78,69,30.40,30.36,30.32,10,10,9,20,13,26,0.00,0,,241
2013-1-5,34,26,18,32,27,14,96,88,76,30.33,30.19,30.05,10,7,0,21,12,26,0.00,5,Snow,211
2013-1-6,35,26,14,31,21,13,96,83,75,30.43,30.21,29.99,10,9,5,22,16,26,0.00,4,,271
2013-1-7,36,24,12,28,21,10,96,85,70,30.44,30.32,30.19,10,9,7,24,12,,0.00,0,,194
2013-1-8,43,34,24,34,28,21,88,81,70,30.24,30.18,30.12,10,8,5,23,13,29,0.00,1,,189
2013-1-9,48,38,29,35,30,25,86,71,46,30.55,30.37,30.12,10,10,10,21,13,28,0.00,0,,258
2013-1-10,48,38,29,49,38,23,100,92,63,30.51,30.10,29.82,10,4,0,22,14,31,0.36,6,Fog-Rain,130
2013-1-11,55,50,46,55,50,47,100,97,82,29.86,29.79,29.72,10,5,0,28,17,31,0.08,6,Fog-Rain,193
2013-1-12,52,40,28,48,36,27,100,88,66,29.99,29.91,29.78,10,7,2,22,14,29,0.11,5,Rain,304
2013-1-13,28,21,13,28,19,8,100,88,77,30.37,30.11,29.89,10,9,2,13,5,,0.00,6,Rain-Snow,305
2013-1-14,24,18,13,16,12,8,88,81,68,30.53,30.49,30.40,10,10,10,9,5,,0.00,0,,325
2013-1-15,29,20,12,22,17,9,92,83,72,30.50,30.37,30.19,10,10,8,12,6,,0.01,2,,60
2013-1-16,36,27,18,28,23,14,96,76,65,30.17,30.08,29.98,10,10,5,22,9,29,0.00,4,,237
2013-1-17,35,28,21,30,23,17,93,77,55,30.50,30.32,30.11,10,10,9,21,11,,0.00,3,,320
2013-1-18,43,32,21,31,25,17,89,74,58,30.51,30.28,30.07,10,10,10,31,15,37,0.00,1,,206
2013-1-19,52,43,34,38,33,25,82,69,56,30.07,29.97,29.85,10,10,10,26,19,37,0.00,0,,240
2013-1-20,31,24,17,19,10,7,79,64,49,30.37,30.31,30.13,10,10,4,30,17,37,0.00,4,Snow,309
2013-1-21,16,10,5,10,1,-7,85,67,41,30.43,30.30,30.20,10,9,2,23,17,28,0.00,4,Snow,289
2013-1-22,15,8,2,0,-3,-6,76,58,43,30.52,30.46,30.42,10,10,10,14,10,20,0.00,2,,283
2013-1-23,32,22,12,16,8,1,68,58,46,30.42,30.31,30.17,10,10,10,22,9,30,0.00,5,,252
2013-1-24,24,16,7,9,4,-3,73,57,46,30.69,30.55,30.34,10,10,7,21,15,29,0.00,1,Snow,65
2013-1-25,34,26,19,19,15,5,89,67,48,30.34,30.17,30.05,10,8,2,20,12,26,0.00,5,Snow,212
2013-1-26,32,23,14,18,11,8,81,62,39,30.45,30.40,30.27,10,10,10,16,9,,0.00,1,,44
2013-1-27,44,34,25,45,32,18,100,91,70,30.41,30.11,29.92,10,4,0,29,17,36,0.25,7,Fog-Rain,171
2013-1-28,59,52,44,58,52,45,100,99,82,29.98,29.91,29.83,4,1,0,25,17,31,0.02,8,Fog-Rain,202
2013-1-29,61,56,50,59,55,51,100,97,90,29.80,29.57,29.42,7,4,0,33,20,43,1.79,8,Fog-Rain-Thunderstorm,205
2013-1-30,50,34,19,50,37,14,100,95,78,29.81,29.45,29.29,10,6,0,31,13,40,0.16,8,Fog-Rain-Snow,246
2013-1-31,21,13,4,18,7,-3,93,75,63,30.34,30.04,29.81,10,7,2,29,18,36,0.00,7,Snow,285